Regional Weather Roundup
Issued by NWS State College, PA

Home | Current Version | Previous Version | Graphics & Text | Print | Product List | Glossary On
Versions: 1 2 3 4 5 6 7 8 9 10 11 12 13 14 15 16 17 18 19 20 21 22 23 24 25 26 27 28 29 30 31 32 33 34 35 36 37 38 39 40 41 42 43 44 45 46 47 48 49 50
000
ASUS41 KCTP 250703
RWRCTP

REGIONAL WEATHER ROUNDUP
NATIONAL WEATHER SERVICE STATE COLLEGE PA
300 AM EDT THU AUG 25 2016

Note: "fair" indicates few or no clouds below 12,000 feet with no
significant weather and/or obstructions to visibility.

* = STATION THAT DOES NOT REPORT PRECIPITATION /E.G. RAIN...SNOW...ETC/
    THUNDER OR FOG.

PAZ002>004-007>009-013>016-020>023-029>032-250800-
WESTERN PENNSYLVANIA

CITY           SKY/WX    TMP DP  RH WIND       PRES   REMARKS
ERIE           LGT RAIN  76  69  79 S16       29.94F
MEADVILLE      CLOUDY    71  65  81 S9        30.01F
FRANKLIN*      CLOUDY    72  64  78 S10       30.06S
NEW CASTLE     LGT RAIN  75  69  81 VRB7      30.03F
BEAVER COUNTY  NOT AVBL
BUTLER*        NOT AVBL
PITTSBURGH INT CLOUDY    75  66  73 S7        30.05F
PITTSBURGH     MOCLDY    73  65  75 S8        30.07F
INDIANA*       PTCLDY    68  64  88 CALM      30.12S
LATROBE        MOCLDY    68  68 100 SW6       30.09F
WASHINGTON CO* CLOUDY    73  66  78 S5        30.08F
$$

PAZ004>006-010>012-017>019-024>028-033>037-041-042-045-046-049>053-250800-
CENTRAL PENNSYLVANIA

CITY           SKY/WX    TMP DP  RH WIND       PRES   REMARKS
BRADFORD       CLOUDY    69  63  81 S5        30.09F
DUBOIS         PTCLDY    70  61  73 SW6       30.09F
CLEARFIELD     PTCLDY    64  62  93 CALM      30.10F
JOHNSTOWN      CLOUDY    70  63  78 S9        30.15F
ALTOONA        PTCLDY    66  65  96 S3        30.12F
STATE COLLEGE  PTCLDY    69  65  88 SW3       30.10F
WILLIAMSPORT   CLEAR     70  63  78 NE6       30.07F
SELINSGROVE    CLEAR     67  67 100 CALM      30.11F
FT INDIANTOWN  CLEAR     64  64  99 CALM      30.14F
CAPITAL CITY   CLEAR     71  63  75 SE6       30.12F
HARRISBURG     MOCLDY    69  65  86 SE5       30.12F
YORK           PTCLDY    66  61  84 CALM      30.13F
$$

PAZ038>040-043-044-047-048-054-055-060>062-067>071-250800-
EASTERN PENNSYLVANIA

CITY           SKY/WX    TMP DP  RH WIND       PRES   REMARKS
SCRANTON       CLEAR     69  63  81 S6        30.12F
MOUNT POCONO   CLEAR     64  32  30 SW10      30.17F
ALLENTOWN      CLEAR     70  62  76 S8        30.14S
QUAKERTOWN*    MOSUNNY   64  63  94 CALM      30.17R
READING        CLEAR     69  62  78 S5        30.13S
LANCASTER      CLEAR     65  64  97 E3        30.14S
COATESVILLE    SUNNY     66  63  88 CALM      30.17S
POTTSTOWN      PTCLDY    66  62  87 CALM      30.17F
BLUE BELL      PTCLDY    63  61  94 CALM      30.15F
DOYLESTOWN     PTCLDY    69  64  84 CALM      30.14F
WILLOW GROVE   NOT AVBL
NORTH PHILA    PTCLDY    72  64  76 SW8       30.15F
PHILADELPHIA   PTCLDY    70  62  76 SW8       30.15F
$$




USA.gov is the U.S. government's official web portal to all federal, state and local government web resources and services.